#timestamp,LO_Frequency,Hit 
1498485615.8,286046963.9,N
1498485635.7,286046961.4,N
1498485655.5,286046963.9,N
1498485675.3,286046964.3,N
1498485695.2,286046961.3,N
1498485715.9,286046961.4,N
1498485735.7,286046961.6,N
1498485755.6,286046961.8,N
1498485775.4,286046961.6,N
1498485795.2,286046962.6,N
1498485815.0,286046961.3,N
1498485816.0,286046961.3,N
1498485835.8,286046964.4,N
1498485855.6,286046964.0,N
1498485875.4,286046961.4,N
1498485895.3,286046962.6,N
1498485915.1,286046962.0,N
1498485935.8,286046961.3,N
1498485955.7,286046962.1,N
1498485975.5,286046961.8,N
1498485995.3,286046964.4,N
1498486015.2,286046961.5,N
1498486035.9,286046962.4,N
1498486055.7,286046961.6,N
1498486075.6,286046962.6,N
1498486095.4,286046960.1,N
1498486115.2,286046960.6,N
1498486135.0,286046960.2,N
1498486136.0,286046960.2,N
1498486155.8,286046962.5,N
1498486175.6,286046960.1,N
1498486195.4,286046962.8,N
1498486215.3,286046961.6,N
1498486235.1,286046962.6,N
1498486255.8,286046962.6,N
1498486275.7,286046962.5,N
1498486295.5,286046961.8,N
1498486315.3,286046962.0,N
1498486335.2,286046962.3,N
1498486355.9,286046959.8,N
1498486375.7,286046959.8,N
1498486395.6,286046959.8,N
1498486415.4,286046960.2,N
1498486435.2,286046962.4,N
1498486455.0,286046960.0,N
1498486456.0,286046960.0,N
1498486475.8,286046960.5,N
1498486495.6,286046961.9,N
1498486515.4,286046960.0,N
1498486535.3,286046959.8,N
1498486555.1,286046960.2,N
1498486575.8,286046960.3,N
1498486595.7,286046960.1,N
1498486615.5,286046960.6,N
1498486635.3,286046960.9,N
1498486655.2,286046960.1,N
1498486675.9,286046962.7,N
1498486695.7,286046963.2,N
1498486715.6,286046964.4,N
1498486735.4,286046964.3,N
1498486755.2,286046964.2,N
1498486775.0,286046963.8,N
1498486776.0,286046963.8,N
1498486795.8,286046963.6,N
1498486815.6,286046963.8,N
1498486835.4,286046964.2,N
1498486855.3,286046963.2,N
1498486875.1,286046961.6,N
1498486895.8,286046964.3,N
1498486915.7,286046964.0,N
1498486935.5,286046961.5,N
1498486955.3,286046960.2,N
1498486975.2,286046962.7,N
1498486995.9,286046962.7,N
1498487015.7,286046962.4,N
1498487035.6,286046962.7,N
1498487055.4,286046962.8,N
1498487075.2,286046961.7,N
1498487095.0,286046962.1,N
1498487095.9,286046962.1,N
1498487115.8,286046962.1,N
1498487135.6,286046962.7,N
1498487155.4,286046961.9,N
1498487175.3,286046961.6,N
1498487195.1,286046961.7,N
1498487215.8,286046961.6,N
1498487235.7,286046962.0,N
1498487255.5,286046962.7,N
1498487275.3,286046959.9,N
1498487295.2,286046961.2,N
1498487315.9,286046960.4,N
1498487335.7,286046959.9,N
1498487355.6,286046960.2,N
1498487375.4,286046960.6,N
1498487395.2,286046958.4,N
1498487415.0,286046959.6,N
1498487415.9,286046959.6,N
1498487435.8,286046957.7,N
1498487455.6,286046957.3,N
1498487475.4,286046957.3,N
1498487495.3,286046957.7,N
1498487515.1,286046955.3,N
1498487535.8,286046957.7,N
1498487555.7,286046958.0,N
1498487575.5,286046957.4,N
1498487595.3,286046955.5,N
1498487615.2,286046955.8,N
1498487635.9,286046956.2,N
1498487655.7,286046956.3,N
1498487675.5,286046953.3,N
1498487695.4,286046951.7,N
1498487715.2,286046954.0,N
1498487735.0,286046954.3,N
1498487735.9,286046954.3,N
1498487755.8,286046954.2,N
1498487775.6,286046954.0,N
1498487795.4,286046954.0,N
1498487815.3,286046951.8,N
1498487835.1,286046952.4,N
1498487836.0,286046952.4,N
1498487855.8,286046952.2,N
1498487875.7,286046954.3,N
1498487895.5,286046954.0,N
1498487915.3,286046953.7,N
1498487935.1,286046956.4,N
1498487955.9,286046953.3,N
1498487975.7,286046953.4,N
1498487995.5,286046953.8,N
1498488015.4,286046954.8,N
1498488035.2,286046954.0,N
1498488055.0,286046954.3,N
1498488055.9,286046954.3,N
1498488075.8,286046952.2,N
1498488095.6,286046951.9,N
1498488115.4,286046952.8,N
1498488135.3,286046953.1,N
1498488155.1,286046950.2,N
1498488156.0,286046950.2,N
1498488175.8,286046950.3,N
1498488195.7,286046948.9,N
1498488215.5,286046951.5,N
1498488235.3,286046950.8,N
1498488255.2,286046950.8,N
1498488275.9,286046951.3,N
1498488295.7,286046951.2,N
1498488315.5,286046949.1,N
1498488335.4,286046948.7,N
1498488355.2,286046949.9,N
1498488375.0,286046947.4,N
1498488375.9,286046947.4,N
1498488395.8,286046947.3,N
1498488415.6,286046949.5,N
1498488435.4,286046947.2,N
1498488455.3,286046947.7,N
1498488475.1,286046945.4,N
1498488495.8,286046948.3,N
1498488515.7,286046945.3,N
1498488535.5,286046945.4,N
1498488555.3,286046948.1,N
1498488575.2,286046948.4,N
1498488595.9,286046946.1,N
1498488615.7,286046945.6,N
1498488635.6,286046945.4,N
1498488655.4,286046945.3,N
1498488675.2,286046948.3,N
1498488695.0,286046945.7,N
1498488695.9,286046945.7,N
1498488715.8,286046946.5,N
1498488735.6,286046946.5,N
1498488755.4,286046944.2,N
1498488775.3,286046944.1,N
1498488795.1,286046946.8,N
1498488815.8,286046944.3,N
1498488835.7,286046943.9,N
1498488855.5,286046944.0,N
1498488875.3,286046944.0,N
1498488895.2,286046944.6,N
1498488915.9,286046945.2,N
1498488935.7,286046944.3,N
1498488955.6,286046944.7,N
1498488975.4,286046942.5,N
1498488995.2,286046942.5,N
1498489015.0,286046945.0,N
1498489015.9,286046945.0,N
1498489035.8,286046945.1,N
1498489055.6,286046942.3,N
1498489075.4,286046942.8,N
1498489095.3,286046941.0,N
1498489115.1,286046943.3,N
1498489135.8,286046943.0,N
1498489155.7,286046940.9,N
1498489175.5,286046943.5,N
1498489195.3,286046940.6,N
